Regional Weather Roundup
Issued by NWS Jackson, KY

Home | Current Version | Previous Version | Text Only | Print | Product List | Glossary On
Versions: 1 2 3 4 5 6 7 8 9 10 11 12 13 14 15 16 17 18 19 20 21 22 23 24 25 26 27 28 29 30 31 32 33 34 35 36 37 38 39 40 41 42 43 44 45 46 47 48 49 50
567
ASUS43 KJKL 052110
RWRJKL

EAST KENTUCKY HOURLY WEATHER ROUNDUP
NATIONAL WEATHER SERVICE JACKSON KY
400 PM EST MON DEC 05 2016

NOTE: "FAIR" INDICATES FEW OR NO CLOUDS BELOW 12,000 FEET WITH
NO SIGNIFICANT WEATHER AND/OR OBSTRUCTIONS TO VISIBILITY.

* THESE REPORTS ARE NOT UNDER NWS QUALITY CONTROL AND MAY NOT
  REPORT WEATHER SUCH AS PRECIPITATION AND FOG.

KYZ079-080-083-085-087-088-110-112-115-119-120-052200
...EASTERN KENTUCKY...

CITY           SKY/WX    TMP DP  RH WIND       PRES   REMARKS
JACKSON        PTSUNNY   47  38  71 CALM      30.01S
LONDON         CLOUDY    48  38  68 NE5       29.98S
SOMERSET*      CLOUDY    46  37  71 E5        29.99F
MONTICELLO*    CLOUDY    48  41  76 N6        29.98F
WILLIAMSBURG*  CLOUDY    48  43  81 NE5       29.97S
MIDDLESBORO*   CLOUDY    51  44  77 CALM      29.97F
HARLAN APT*    CLOUDY    50  41  71 CALM      29.97F
PIKE CO APT*     N/A     46  37  71 NE5       30.01S
BIG SANDY APT* MOCLDY    48  38  68 NE3       30.03R
MOREHEAD APT*  CLOUDY    45  34  65 CALM      30.04R
ASHLAND*       CLOUDY    48  37  66 NE6       30.02F
$$

KYZ035-036-041-042-044-050-067-078-099-052200
...CENTRAL KENTUCKY...

CITY           SKY/WX    TMP DP  RH WIND       PRES   REMARKS
MT STERLING*   CLOUDY    45  36  70 E7        30.03S
FLEMING/MASON* PTSUNNY   44  35  69 CALM      30.03F
DANVILLE*      CLOUDY    43  36  75 E5        30.01F
LEXINGTON      CLOUDY    45  35  68 E8        30.01F
FRANKFORT      CLOUDY    44  34  67 E8        30.00F
LOUISVILLE     CLOUDY    45  33  63 E9        30.01F
LEBANON*         N/A     45  36  70 CALM      30.01S
GLASGOW*       CLOUDY    43  39  84 NE6       29.97F
BOWLING GREEN  CLOUDY    45  39  79 NE10      29.97F
$$

KYZ091>093-OHZ055-061-077-WVZ005-015-034-035-042-052200
...SOUTHERN OHIO/WEST VIRGINIA...

CITY           SKY/WX    TMP DP  RH WIND       PRES   REMARKS
COVINGTON      CLOUDY    43  33  68 E8        30.02S
COLUMBUS       CLOUDY    40  32  73 CALM      30.07F
DAYTON         CLOUDY    40  31  70 E7        30.05S
WILMINGTON     MOSUNNY   41  33  73 NE8       30.03F
HUNTINGTON     CLOUDY    48  35  60 NE6       30.03S
CHARLESTON     MOCLDY    49  35  58 NE6       30.03S
PINEVILLE*     CLOUDY    49  34  57 MISG      30.06R
BECKLEY        CLOUDY    44  33  65 N3        30.01R
BLUEFIELD      MOSUNNY   45  34  65 N5        30.00S
LOGAN CO APT*    N/A     48  36  61 CALM      30.01S
$$

VAZ002-007-008-TNZ017-027-036-066-071-052200
...SOUTHWEST VIRGINIA/EAST TENNESSEE...

CITY           SKY/WX    TMP DP  RH WIND       PRES   REMARKS
WISE*          CLOUDY    46  36  66 CALM      29.99F
JONESVILLE*      N/A     50  41  71 CALM      29.99F
ABINGDON*      CLOUDY    52  40  64 NE3       29.99S
BRISTOL        CLOUDY    51  42  71 CALM      29.98F
MORRISTOWN*    CLEAR     52  46  82 E6        29.95F
SEVIERVILLE*   CLOUDY    50  46  87 CALM      29.96S
KNOXVILLE      LGT RAIN  51  46  83 NE7       29.94F
OAK RIDGE      CLOUDY    52  45  77 VRB3      29.97F
CROSSVILLE     CLOUDY    47  45  93 VRB6      29.94F
NASHVILLE      CLOUDY    47  42  83 E7        29.94F
$$

...KEY TO REMARKS...
VSB - VISIBILITY IN MILES
WCI - WIND CHILL INDEX
HX  - HEAT INDEX

$$




USA.gov is the U.S. government's official web portal to all federal, state and local government web resources and services.